"Time","409202A","409202A","409202A","409202A"
"and",100.00,3000.00,3500.00,400.00
"Date","Water Level (m)","Cond @25 degC(uS/cm)","Water Temp (Deg C)","Discharge (ML/Day)"
"","Mean","Mean","Mean","Mean"
09:00:00 01/01/1980,,,,
09:00:00 02/01/1980,1.828,,,6764.387
09:00:00 03/01/1980,1.813,,,6677.301
09:00:00 04/01/1980,1.806,,,6637.521
09:00:00 05/01/1980,1.82,,,6720.007
09:00:00 06/01/1980,1.832,,,6791.101
09:00:00 07/01/1980,1.858,,,6944.049
09:00:00 08/01/1980,1.937,,,7424.508
09:00:00 09/01/1980,2.041,,,8070.702
09:00:00 10/01/1980,2.063,,,8212.445
09:00:00 11/01/1980,2.068,,,8239.641
09:00:00 12/01/1980,2.1,,,8466.337
09:00:00 13/01/1980,2.135,,,9125.982
09:00:00 14/01/1980,2.139,,,9150.468
09:00:00 15/01/1980,2.135,,,9127.66
09:00:00 16/01/1980,2.148,,,9214.788
09:00:00 17/01/1980,2.154,,,9257.146
09:00:00 18/01/1980,2.147,,,9204.574
09:00:00 19/01/1980,2.138,,,9144.585
09:00:00 20/01/1980,2.12,,,9027.454
09:00:00 21/01/1980,2.096,,,8866.743
09:00:00 22/01/1980,2.063,,,8645.576
09:00:00 23/01/1980,2.037,,,8473.918
09:00:00 24/01/1980,2.03,,,8425.459
09:00:00 25/01/1980,2.03,,,8427.114
09:00:00 26/01/1980,2.017,,,8340.42
09:00:00 27/01/1980,2.003,,,8251.24
09:00:00 28/01/1980,1.998,,,8218.23
09:00:00 29/01/1980,1.995,,,8195.038
09:00:00 30/01/1980,1.991,,,8169.259
09:00:00 31/01/1980,1.996,,,8206.2
09:00:00 01/02/1980,2.006,,,8273.553
09:00:00 02/02/1980,2.018,,,8350.161
09:00:00 03/02/1980,2.027,,,8406.674
09:00:00 04/02/1980,2.048,,,8547.245
09:00:00 05/02/1980,2.07,,,8690.945
09:00:00 06/02/1980,2.084,,,8782.334
09:00:00 07/02/1980,2.092,,,8834.78
09:00:00 08/02/1980,2.093,,,8843.14
09:00:00 09/02/1980,2.099,,,8887.382
09:00:00 10/02/1980,2.096,,,8864.014
09:00:00 11/02/1980,2.085,,,8790.635
09:00:00 12/02/1980,2.076,,,8732.405
09:00:00 13/02/1980,2.072,,,8706.668
09:00:00 14/02/1980,2.07,,,8693.397
09:00:00 15/02/1980,2.069,,,8685.106
09:00:00 16/02/1980,2.068,,,8680.134
09:00:00 17/02/1980,2.062,,,8639.597
09:00:00 18/02/1980,2.049,,,8553.716
09:00:00 19/02/1980,2.035,,,8460.779
09:00:00 20/02/1980,2.025,,,8392.683
09:00:00 21/02/1980,2.022,,,8376.324
09:00:00 22/02/1980,2.019,,,8353.427
09:00:00 23/02/1980,2.022,,,8376.345
09:00:00 24/02/1980,2.029,,,8418.892
09:00:00 25/02/1980,2.028,,,8412.337
09:00:00 26/02/1980,2.036,,,8469.892
09:00:00 27/02/1980,2.057,,,8604.877
09:00:00 28/02/1980,2.064,,,8653.63
09:00:00 29/02/1980,2.065,,,8660.26
09:00:00 01/03/1980,2.072,,,8702.529
09:00:00 02/03/1980,2.073,,,8714.145
09:00:00 03/03/1980,2.072,,,8702.529
09:00:00 04/03/1980,2.083,,,8779.034
09:00:00 05/03/1980,2.103,,,8910.895
09:00:00 06/03/1980,2.124,,,9051.872
09:00:00 07/03/1980,2.154,,,9252.448
09:00:00 08/03/1980,2.197,,,9550.235
09:00:00 09/03/1980,2.23,,,9776.599
09:00:00 10/03/1980,2.242,,,9858.918
09:00:00 11/03/1980,2.248,,,9901.51
09:00:00 12/03/1980,2.257,,,9965.087
09:00:00 13/03/1980,2.263,,,10007.814
09:00:00 14/03/1980,2.256,,,9954.663
09:00:00 15/03/1980,2.239,,,9839.002
09:00:00 16/03/1980,2.223,,,9728.164
09:00:00 17/03/1980,2.206,,,9610.067
09:00:00 18/03/1980,2.182,,,9446.417
09:00:00 19/03/1980,2.149,,,9223.454
09:00:00 20/03/1980,2.126,,,9066.935
09:00:00 21/03/1980,2.12,,,9025.716
09:00:00 22/03/1980,2.12,,,9024.898
09:00:00 23/03/1980,2.134,,,9122.632
09:00:00 24/03/1980,2.147,,,9204.574
09:00:00 25/03/1980,2.154,,,9252.064
09:00:00 26/03/1980,2.167,,,9343.877
09:00:00 27/03/1980,2.183,,,9450.521
09:00:00 28/03/1980,2.195,,,9535.269
09:00:00 29/03/1980,2.201,,,9574.745
09:00:00 30/03/1980,2.204,,,9598.817
09:00:00 31/03/1980,2.211,,,9642.711
09:00:00 01/04/1980,2.216,,,9678.04
09:00:00 02/04/1980,2.223,,,9730.764
09:00:00 03/04/1980,2.238,,,9830.293
09:00:00 04/04/1980,2.249,,,9905.006
09:00:00 05/04/1980,2.256,,,9959.832
09:00:00 06/04/1980,2.254,,,9943.29
09:00:00 07/04/1980,2.247,,,9892.808
09:00:00 08/04/1980,2.24,,,9848.505
09:00:00 09/04/1980,2.238,,,9831.145
09:00:00 10/04/1980,2.242,,,9858.045
09:00:00 11/04/1980,2.242,,,9858.915
09:00:00 12/04/1980,2.23,,,9773.248
09:00:00 13/04/1980,2.2,,,9567.245
09:00:00 14/04/1980,2.17,,,9361.842
09:00:00 15/04/1980,2.15,,,9227.469
09:00:00 16/04/1980,2.143,,,9180.873
09:00:00 17/04/1980,2.139,,,9150.468
09:00:00 18/04/1980,2.132,,,9107.385
09:00:00 19/04/1980,2.155,,,9265.457
09:00:00 20/04/1980,2.241,,,9855.684
09:00:00 21/04/1980,2.357,,,10669.373
09:00:00 22/04/1980,2.422,,,11138.311
09:00:00 23/04/1980,2.443,,,11294.755
09:00:00 24/04/1980,2.443,,,11294.784
09:00:00 25/04/1980,2.409,,,11044.759
09:00:00 26/04/1980,2.334,,,10508.082
09:00:00 27/04/1980,2.244,,,9873.804
09:00:00 28/04/1980,2.147,,,9208.498
09:00:00 29/04/1980,2.031,,,8432.6
09:00:00 30/04/1980,1.869,,,7362.845
09:00:00 01/05/1980,1.703,,,6297.798
09:00:00 02/05/1980,1.624,,,5819.679
09:00:00 03/05/1980,1.594,,,5644.661
09:00:00 04/05/1980,1.564,,,5470.814
09:00:00 05/05/1980,1.517,,,5201.61
09:00:00 06/05/1980,1.458,,,4870.102
09:00:00 07/05/1980,1.392,,,4505.601
09:00:00 08/05/1980,1.312,,,4080.452
09:00:00 09/05/1980,1.217,,,3581.164
09:00:00 10/05/1980,1.128,,,3144.138
09:00:00 11/05/1980,1.064,,,2845.766
09:00:00 12/05/1980,1.023,,,2664.255
09:00:00 13/05/1980,1.004,,,2581.999
09:00:00 14/05/1980,,,,
09:00:00 15/05/1980,,,,
09:00:00 16/05/1980,,,,
09:00:00 17/05/1980,1.001,,,2569.675
09:00:00 18/05/1980,,,,
09:00:00 19/05/1980,,,,
09:00:00 20/05/1980,,,,
09:00:00 21/05/1980,1.0,,,2565.36
09:00:00 22/05/1980,,,,
09:00:00 23/05/1980,,,,
09:00:00 24/05/1980,,,,
09:00:00 25/05/1980,,,,
09:00:00 26/05/1980,0.999,,,2560.987
09:00:00 27/05/1980,0.998,,,2558.255
09:00:00 28/05/1980,0.994,,,2541.927
09:00:00 29/05/1980,0.971,,,2441.105
09:00:00 30/05/1980,0.937,,,2296.514
09:00:00 31/05/1980,0.927,,,2256.886
09:00:00 01/06/1980,0.926,,,2250.147
09:00:00 02/06/1980,0.924,,,2244.453
09:00:00 03/06/1980,0.924,,,2242.384
09:00:00 04/06/1980,0.924,,,2242.903
09:00:00 05/06/1980,0.92,,,2227.413
09:00:00 06/06/1980,0.916,,,2209.898
09:00:00 07/06/1980,0.917,,,2214.547
09:00:00 08/06/1980,0.923,,,2239.8
09:00:00 09/06/1980,0.928,,,2260.021
09:00:00 10/06/1980,0.932,,,2276.11
09:00:00 11/06/1980,0.926,,,2252.774
09:00:00 12/06/1980,0.918,,,2219.166
09:00:00 13/06/1980,0.917,,,2212.472
09:00:00 14/06/1980,0.92,,,2225.858
09:00:00 15/06/1980,0.921,,,2229.467
09:00:00 16/06/1980,0.922,,,2234.639
09:00:00 17/06/1980,0.921,,,2232.085
09:00:00 18/06/1980,0.914,,,2200.141
09:00:00 19/06/1980,0.911,,,2188.345
09:00:00 20/06/1980,0.909,,,2182.717
09:00:00 21/06/1980,0.905,,,2163.85
09:00:00 22/06/1980,0.898,,,2137.88
09:00:00 23/06/1980,0.897,,,2134.322
09:00:00 24/06/1980,0.902,,,2152.14
09:00:00 25/06/1980,0.921,,,2230.411
09:00:00 26/06/1980,0.948,,,2342.155
09:00:00 27/06/1980,0.954,,,2367.436
09:00:00 28/06/1980,0.943,,,2323.208
09:00:00 29/06/1980,0.932,,,2276.651
09:00:00 30/06/1980,0.927,,,2257.404
09:00:00 01/07/1980,0.931,,,2272.489
09:00:00 02/07/1980,0.94,,,2310.608
09:00:00 03/07/1980,0.95,,,2353.699
09:00:00 04/07/1980,0.956,,,2379.056
09:00:00 05/07/1980,0.996,,,2549.379
09:00:00 06/07/1980,1.111,,,3068.987
09:00:00 07/07/1980,1.242,,,3710.124
09:00:00 08/07/1980,1.508,,,5215.799
09:00:00 09/07/1980,1.916,,,7664.514
09:00:00 10/07/1980,2.071,,,8700.877
09:00:00 11/07/1980,2.035,,,8458.525
09:00:00 12/07/1980,1.929,,,7751.421
09:00:00 13/07/1980,1.832,,,7109.93
09:00:00 14/07/1980,1.734,,,6486.988
09:00:00 15/07/1980,1.646,,,5950.944
09:00:00 16/07/1980,1.577,,,5545.538
09:00:00 17/07/1980,1.512,,,5175.575
09:00:00 18/07/1980,1.444,,,4790.027
09:00:00 19/07/1980,1.383,,,4456.323
09:00:00 20/07/1980,1.333,,,4188.23
09:00:00 21/07/1980,1.301,,,4019.915
09:00:00 22/07/1980,1.32,,,4122.474
09:00:00 23/07/1980,1.422,,,4673.467
09:00:00 24/07/1980,1.569,,,5504.652
09:00:00 25/07/1980,1.676,,,6130.348
09:00:00 26/07/1980,1.709,,,6326.891
09:00:00 27/07/1980,1.703,,,6291.189
09:00:00 28/07/1980,1.658,,,6018.939
09:00:00 29/07/1980,1.619,,,5788.766
09:00:00 30/07/1980,1.744,,,6574.719
09:00:00 31/07/1980,2.117,,,9048.021
09:00:00 01/08/1980,2.583,,,12358.866
09:00:00 02/08/1980,2.942,,,15224.851
09:00:00 03/08/1980,3.29,,,18358.707
09:00:00 04/08/1980,3.532,,,20708.747
09:00:00 05/08/1980,3.504,,,20432.051
09:00:00 06/08/1980,3.304,,,18476.908
09:00:00 07/08/1980,3.09,,,16466.63
09:00:00 08/08/1980,2.89,,,14741.574
09:00:00 09/08/1980,2.713,,,13334.006
09:00:00 10/08/1980,2.634,,,12722.577
09:00:00 11/08/1980,2.722,,,13406.643
09:00:00 12/08/1980,2.877,,,14628.453
09:00:00 13/08/1980,2.93,,,15053.541
09:00:00 14/08/1980,2.836,,,14307.454
09:00:00 15/08/1980,2.642,,,12788.961
09:00:00 16/08/1980,2.482,,,11579.816
09:00:00 17/08/1980,2.43,,,11194.505
09:00:00 18/08/1980,2.438,,,11253.71
09:00:00 19/08/1980,2.353,,,10650.66
09:00:00 20/08/1980,2.089,,,8826.586
09:00:00 21/08/1980,1.856,,,7268.46
09:00:00 22/08/1980,1.826,,,7075.294
09:00:00 23/08/1980,1.997,,,8201.105
09:00:00 24/08/1980,2.213,,,9664.406
09:00:00 25/08/1980,2.379,,,10827.734
09:00:00 26/08/1980,2.485,,,11605.924
09:00:00 27/08/1980,2.564,,,12188.453
09:00:00 28/08/1980,2.511,,,11796.938
09:00:00 29/08/1980,2.338,,,10541.47
09:00:00 30/08/1980,2.178,,,9426.29
09:00:00 31/08/1980,2.05,,,8559.431
09:00:00 01/09/1980,1.94,,,7826.82
09:00:00 02/09/1980,1.796,,,6883.446
09:00:00 03/09/1980,1.682,,,6165.347
09:00:00 04/09/1980,1.637,,,5891.77
09:00:00 05/09/1980,1.627,,,5837.795
09:00:00 06/09/1980,1.636,,,5886.498
09:00:00 07/09/1980,1.642,,,5921.275
09:00:00 08/09/1980,1.647,,,5951.694
09:00:00 09/09/1980,1.643,,,5931.026
09:00:00 10/09/1980,1.6,,,5679.037
09:00:00 11/09/1980,1.533,,,5291.069
09:00:00 12/09/1980,1.506,,,5138.912
09:00:00 13/09/1980,1.533,,,5295.201
09:00:00 14/09/1980,1.588,,,5607.127
09:00:00 15/09/1980,1.61,,,5737.167
09:00:00 16/09/1980,1.623,,,5811.644
09:00:00 17/09/1980,1.738,,,6525.681
09:00:00 18/09/1980,2.0,,,8227.789
09:00:00 19/09/1980,2.27,,,10067.793
09:00:00 20/09/1980,2.578,,,12332.933
09:00:00 21/09/1980,2.978,,,15526.254
09:00:00 22/09/1980,3.19,,,17381.402
09:00:00 23/09/1980,3.125,,,16779.977
09:00:00 24/09/1980,2.891,,,14765.69
09:00:00 25/09/1980,2.607,,,12522.057
09:00:00 26/09/1980,2.424,,,11158.848
09:00:00 27/09/1980,2.282,,,10143.789
09:00:00 28/09/1980,2.108,,,8951.399
09:00:00 29/09/1980,1.901,,,7574.157
09:00:00 30/09/1980,1.714,,,6362.771
09:00:00 01/10/1980,1.632,,,5862.463
09:00:00 02/10/1980,1.62,,,5793.857
09:00:00 03/10/1980,1.669,,,6086.319
09:00:00 04/10/1980,1.743,,,6542.366
09:00:00 05/10/1980,1.81,,,6965.676
09:00:00 06/10/1980,1.901,,,7565.574
09:00:00 07/10/1980,2.025,,,8394.022
09:00:00 08/10/1980,2.1,,,8893.304
09:00:00 09/10/1980,2.078,,,8743.395
09:00:00 10/10/1980,2.054,,,8584.24
09:00:00 11/10/1980,2.048,,,8543.801
09:00:00 12/10/1980,2.057,,,8604.877
09:00:00 13/10/1980,2.071,,,8698.427
09:00:00 14/10/1980,2.091,,,8832.432
09:00:00 15/10/1980,2.144,,,9192.195
09:00:00 16/10/1980,2.258,,,9974.457
09:00:00 17/10/1980,2.342,,,10559.889
09:00:00 18/10/1980,2.279,,,10124.272
09:00:00 19/10/1980,2.149,,,9223.833
09:00:00 20/10/1980,2.066,,,8665.723
09:00:00 21/10/1980,2.04,,,8491.963
09:00:00 22/10/1980,2.08,,,8760.788
09:00:00 23/10/1980,2.175,,,9397.088
09:00:00 24/10/1980,2.266,,,10024.743
09:00:00 25/10/1980,2.28,,,10126.687
09:00:00 26/10/1980,2.2,,,9572.233
09:00:00 27/10/1980,2.132,,,9110.155
09:00:00 28/10/1980,2.024,,,8380.284
09:00:00 29/10/1980,1.886,,,7463.808
09:00:00 30/10/1980,1.839,,,7153.517
09:00:00 31/10/1980,1.849,,,7215.48
09:00:00 01/11/1980,1.881,,,7428.517
09:00:00 02/11/1980,1.929,,,7749.824
09:00:00 03/11/1980,1.947,,,7872.867
09:00:00 04/11/1980,1.992,,,8172.816
09:00:00 05/11/1980,2.065,,,8657.324
09:00:00 06/11/1980,2.091,,,8831.44
09:00:00 07/11/1980,2.086,,,8796.48
09:00:00 08/11/1980,2.077,,,8735.722
09:00:00 09/11/1980,2.079,,,8754.021
09:00:00 10/11/1980,2.1,,,8891.908
09:00:00 11/11/1980,2.152,,,9245.539
09:00:00 12/11/1980,2.211,,,9643.807
09:00:00 13/11/1980,2.228,,,9759.267
09:00:00 14/11/1980,2.202,,,9586.384
09:00:00 15/11/1980,2.169,,,9359.174
09:00:00 16/11/1980,2.175,,,9398.59
09:00:00 17/11/1980,2.194,,,9527.539
09:00:00 18/11/1980,2.177,,,9409.825
09:00:00 19/11/1980,2.137,,,9141.439
09:00:00 20/11/1980,2.122,,,9038.411
09:00:00 21/11/1980,2.177,,,9412.088
09:00:00 22/11/1980,2.292,,,10213.406
09:00:00 23/11/1980,2.389,,,10902.643
09:00:00 24/11/1980,2.428,,,11179.062
09:00:00 25/11/1980,2.436,,,11239.109
09:00:00 26/11/1980,2.43,,,11193.667
09:00:00 27/11/1980,2.388,,,10895.155
09:00:00 28/11/1980,2.329,,,10469.355
09:00:00 29/11/1980,2.308,,,10320.43
09:00:00 30/11/1980,2.303,,,10283.362
09:00:00 01/12/1980,2.303,,,10284.25
09:00:00 02/12/1980,2.31,,,10338.99
09:00:00 03/12/1980,2.315,,,10368.152
09:00:00 04/12/1980,2.308,,,10318.686
09:00:00 05/12/1980,2.297,,,10247.234
09:00:00 06/12/1980,2.293,,,10216.414
09:00:00 07/12/1980,2.294,,,10224.335
09:00:00 08/12/1980,2.298,,,10248.108
09:00:00 09/12/1980,2.294,,,10226.14
09:00:00 10/12/1980,2.279,,,10115.483
09:00:00 11/12/1980,2.265,,,10020.053
09:00:00 12/12/1980,2.265,,,10019.202
09:00:00 13/12/1980,2.292,,,10208.139
09:00:00 14/12/1980,2.326,,,10452.324
09:00:00 15/12/1980,2.331,,,10484.265
09:00:00 16/12/1980,2.356,,,10661.703
09:00:00 17/12/1980,2.46,,,11421.973
09:00:00 18/12/1980,2.665,,,12970.824
09:00:00 19/12/1980,2.863,,,14516.535
09:00:00 20/12/1980,2.841,,,14345.754
09:00:00 21/12/1980,2.7,,,13229.029
09:00:00 22/12/1980,2.587,,,12362.623
09:00:00 23/12/1980,2.444,,,11307.231
09:00:00 24/12/1980,2.326,,,10451.938
09:00:00 25/12/1980,2.298,,,10254.288
09:00:00 26/12/1980,2.307,,,10312.486
09:00:00 27/12/1980,2.312,,,10351.349
09:00:00 28/12/1980,2.314,,,10367.264
09:00:00 29/12/1980,2.312,,,10347.828
09:00:00 30/12/1980,2.305,,,10302.768
09:00:00 31/12/1980,2.304,,,10291.297
09:00:00 01/01/1981,2.301,,,10273.664
09:00:00 02/01/1981,2.298,,,10254.271
09:00:00 03/01/1981,2.303,,,10285.143
09:00:00 04/01/1981,2.311,,,10342.513
09:00:00 05/01/1981,2.316,,,10377.886
09:00:00 06/01/1981,2.321,,,10410.643
09:00:00 07/01/1981,2.32,,,10407.109
09:00:00 08/01/1981,2.305,,,10300.271
09:00:00 09/01/1981,2.275,,,10089.394
09:00:00 10/01/1981,2.245,,,9881.593
09:00:00 11/01/1981,2.231,,,9780.011
09:00:00 12/01/1981,2.239,,,9840.873
09:00:00 13/01/1981,2.284,,,10150.595
09:00:00 14/01/1981,2.337,,,10524.422
09:00:00 15/01/1981,2.356,,,10665.14
09:00:00 16/01/1981,2.358,,,10675.868
09:00:00 17/01/1981,2.357,,,10667.825
09:00:00 18/01/1981,2.366,,,10731.377
09:00:00 19/01/1981,2.369,,,10758.255
09:00:00 20/01/1981,2.363,,,10710.752
09:00:00 21/01/1981,2.361,,,10700.907
09:00:00 22/01/1981,2.358,,,10678.548
09:00:00 23/01/1981,2.353,,,10642.802
09:00:00 24/01/1981,2.351,,,10625.834
09:00:00 25/01/1981,2.351,,,10629.405
09:00:00 26/01/1981,2.352,,,10631.193
09:00:00 27/01/1981,2.38,,,10832.799
09:00:00 28/01/1981,2.429,,,11188.193
09:00:00 29/01/1981,2.478,,,11552.849
09:00:00 30/01/1981,2.668,,,13006.717
09:00:00 31/01/1981,2.938,,,15136.425
09:00:00 01/02/1981,3.051,,,16096.693
09:00:00 02/02/1981,3.042,,,16018.743
09:00:00 03/02/1981,2.882,,,14682.798
09:00:00 04/02/1981,2.66,,,12925.598
09:00:00 05/02/1981,2.573,,,12253.363
09:00:00 06/02/1981,2.567,,,12211.911
09:00:00 07/02/1981,2.559,,,12148.88
09:00:00 08/02/1981,2.552,,,12098.149
09:00:00 09/02/1981,2.547,,,12058.772
09:00:00 10/02/1981,2.535,,,11974.549
09:00:00 11/02/1981,2.516,,,11829.138
09:00:00 12/02/1981,2.503,,,11734.227
09:00:00 13/02/1981,2.592,,,12411.283
09:00:00 14/02/1981,2.776,,,13825.482
09:00:00 15/02/1981,2.865,,,14533.992
09:00:00 16/02/1981,2.869,,,14567.261
09:00:00 17/02/1981,2.782,,,13876.272
09:00:00 18/02/1981,2.611,,,12554.006
09:00:00 19/02/1981,2.477,,,11538.533
09:00:00 20/02/1981,2.432,,,11212.702
09:00:00 21/02/1981,2.441,,,11277.608
09:00:00 22/02/1981,2.466,,,11459.512
09:00:00 23/02/1981,2.477,,,11544.032
09:00:00 24/02/1981,2.512,,,11800.608
09:00:00 25/02/1981,2.589,,,12381.162
09:00:00 26/02/1981,2.652,,,12857.732
09:00:00 27/02/1981,2.666,,,12966.197
09:00:00 28/02/1981,2.62,,,12616.828
09:00:00 01/03/1981,2.533,,,11961.549
09:00:00 02/03/1981,2.459,,,11409.372
09:00:00 03/03/1981,2.427,,,11177.28
09:00:00 04/03/1981,2.412,,,11068.315
09:00:00 05/03/1981,2.403,,,11004.045
09:00:00 06/03/1981,2.399,,,10975.118
09:00:00 07/03/1981,2.406,,,11023.079
09:00:00 08/03/1981,2.425,,,11158.232
09:00:00 09/03/1981,2.444,,,11301.168
09:00:00 10/03/1981,2.452,,,11356.872
09:00:00 11/03/1981,2.448,,,11326.71
09:00:00 12/03/1981,2.442,,,11282.881
09:00:00 13/03/1981,2.438,,,11252.779
09:00:00 14/03/1981,2.437,,,11250.956
09:00:00 15/03/1981,2.44,,,11271.934
09:00:00 16/03/1981,2.446,,,11310.263
09:00:00 17/03/1981,2.445,,,11306.62
09:00:00 18/03/1981,2.439,,,11259.163
09:00:00 19/03/1981,2.435,,,11235.465
09:00:00 20/03/1981,2.434,,,11229.088
09:00:00 21/03/1981,2.437,,,11244.579
09:00:00 22/03/1981,2.441,,,11276.493
09:00:00 23/03/1981,2.444,,,11296.564
09:00:00 24/03/1981,2.442,,,11286.525
09:00:00 25/03/1981,2.44,,,11269.192
09:00:00 26/03/1981,2.438,,,11258.248
09:00:00 27/03/1981,2.444,,,11295.68
09:00:00 28/03/1981,2.445,,,11309.392
09:00:00 29/03/1981,2.409,,,11045.807
09:00:00 30/03/1981,2.368,,,10750.191
09:00:00 31/03/1981,2.475,,,11539.966
09:00:00 01/04/1981,2.715,,,13355.11
09:00:00 02/04/1981,2.925,,,15041.792
09:00:00 03/04/1981,3.103,,,16571.904
09:00:00 04/04/1981,3.165,,,17140.934
09:00:00 05/04/1981,3.131,,,16831.021
09:00:00 06/04/1981,2.986,,,15561.503
09:00:00 07/04/1981,2.707,,,13310.153
09:00:00 08/04/1981,2.347,,,10620.649
09:00:00 09/04/1981,2.063,,,8642.978
09:00:00 10/04/1981,1.934,,,7783.154
09:00:00 11/04/1981,1.906,,,7594.085
09:00:00 12/04/1981,1.911,,,7624.943
09:00:00 13/04/1981,1.911,,,7626.618
09:00:00 14/04/1981,1.899,,,7549.25
09:00:00 15/04/1981,1.885,,,7454.59
09:00:00 16/04/1981,1.896,,,7527.013
09:00:00 17/04/1981,1.931,,,7761.867
09:00:00 18/04/1981,1.959,,,7950.78
09:00:00 19/04/1981,1.97,,,8026.45
09:00:00 20/04/1981,1.974,,,8052.87
09:00:00 21/04/1981,1.968,,,8014.533
09:00:00 22/04/1981,1.946,,,7860.639
09:00:00 23/04/1981,1.885,,,7459.996
09:00:00 24/04/1981,1.831,,,7099.073
09:00:00 25/04/1981,1.82,,,7027.253
09:00:00 26/04/1981,1.793,,,6856.788
09:00:00 27/04/1981,1.774,,,6737.102
09:00:00 28/04/1981,1.765,,,6678.425
09:00:00 29/04/1981,1.759,,,6642.043
09:00:00 30/04/1981,1.76,,,6648.371
09:00:00 01/05/1981,1.766,,,6683.955
09:00:00 02/05/1981,,,,
09:00:00 03/05/1981,,,,
09:00:00 04/05/1981,1.766,,,6684.757
09:00:00 05/05/1981,1.742,,,6535.708
09:00:00 06/05/1981,1.714,,,6356.352
09:00:00 07/05/1981,1.722,,,6409.216
09:00:00 08/05/1981,1.721,,,6403.081
09:00:00 09/05/1981,1.711,,,6337.743
09:00:00 10/05/1981,1.714,,,6360.218
09:00:00 11/05/1981,1.726,,,6434.459
09:00:00 12/05/1981,1.795,,,6870.547
09:00:00 13/05/1981,1.891,,,7494.198
09:00:00 14/05/1981,1.909,,,7611.945
09:00:00 15/05/1981,1.873,,,7378.139
09:00:00 16/05/1981,1.821,,,7035.475
09:00:00 17/05/1981,1.72,,,6403.025
09:00:00 18/05/1981,1.58,,,5565.311
09:00:00 19/05/1981,1.404,,,4580.876
09:00:00 20/05/1981,1.247,,,3737.413
09:00:00 21/05/1981,1.19,,,3440.951
09:00:00 22/05/1981,1.176,,,3370.083
09:00:00 23/05/1981,1.156,,,3272.489
09:00:00 24/05/1981,1.143,,,3210.629
09:00:00 25/05/1981,1.139,,,3192.716
09:00:00 26/05/1981,1.135,,,3174.891
09:00:00 27/05/1981,1.125,,,3125.702
09:00:00 28/05/1981,1.105,,,3034.421
09:00:00 29/05/1981,1.072,,,2881.092
09:00:00 30/05/1981,1.05,,,2782.286
09:00:00 31/05/1981,1.049,,,2781.188
09:00:00 01/06/1981,1.061,,,2831.19
09:00:00 02/06/1981,1.072,,,2880.181
09:00:00 03/06/1981,1.066,,,2855.596
09:00:00 04/06/1981,1.061,,,2831.615
09:00:00 05/06/1981,1.063,,,2842.213
09:00:00 06/06/1981,1.109,,,3056.325
09:00:00 07/06/1981,1.202,,,3502.199
09:00:00 08/06/1981,1.249,,,3744.268
09:00:00 09/06/1981,1.257,,,3785.256
09:00:00 10/06/1981,1.274,,,3877.599
09:00:00 11/06/1981,1.315,,,4096.018
09:00:00 12/06/1981,1.306,,,4044.64
09:00:00 13/06/1981,1.263,,,3818.115
09:00:00 14/06/1981,1.255,,,3776.169
09:00:00 15/06/1981,1.275,,,3884.141
09:00:00 16/06/1981,1.376,,,4430.832
09:00:00 17/06/1981,1.62,,,5815.534
09:00:00 18/06/1981,1.836,,,7140.76
09:00:00 19/06/1981,1.938,,,7811.16
09:00:00 20/06/1981,1.893,,,7513.056
09:00:00 21/06/1981,1.742,,,6549.196
09:00:00 22/06/1981,1.579,,,5555.368
09:00:00 23/06/1981,1.516,,,5197.306
09:00:00 24/06/1981,1.51,,,5159.289
09:00:00 25/06/1981,1.507,,,5146.451
09:00:00 26/06/1981,1.573,,,5534.447
09:00:00 27/06/1981,1.974,,,8111.309
09:00:00 28/06/1981,2.806,,,14428.177
09:00:00 29/06/1981,3.76,,,23088.297
09:00:00 30/06/1981,4.449,,,30521.962
09:00:00 01/07/1981,4.884,,,36031.091
09:00:00 02/07/1981,5.067,,,38717.563
09:00:00 03/07/1981,4.963,,,37183.693
09:00:00 04/07/1981,4.668,,,33110.773
09:00:00 05/07/1981,4.371,,,29459.237
09:00:00 06/07/1981,4.217,,,27788.557
09:00:00 07/07/1981,4.267,,,28326.658
09:00:00 08/07/1981,4.598,,,32329.824
09:00:00 09/07/1981,5.016,,,37971.605
09:00:00 10/07/1981,5.179,,,40419.447
09:00:00 11/07/1981,5.06,,,38633.649
09:00:00 12/07/1981,4.749,,,34183.85
09:00:00 13/07/1981,4.426,,,30064.482
09:00:00 14/07/1981,4.164,,,27230.616
09:00:00 15/07/1981,3.943,,,24899.217
09:00:00 16/07/1981,3.782,,,23220.969
09:00:00 17/07/1981,3.631,,,21693.78
09:00:00 18/07/1981,3.442,,,19822.12
09:00:00 19/07/1981,3.209,,,17567.776
09:00:00 20/07/1981,3.025,,,15872.734
09:00:00 21/07/1981,3.044,,,16059.081
09:00:00 22/07/1981,3.442,,,19880.189
09:00:00 23/07/1981,4.227,,,28264.721
09:00:00 24/07/1981,5.158,,,40819.724
09:00:00 25/07/1981,6.009,,,63243.425
09:00:00 26/07/1981,6.629,,,94562.685
09:00:00 27/07/1981,6.813,,,110003.122
09:00:00 28/07/1981,6.76,,,104560.994
09:00:00 29/07/1981,6.631,,,93016.383
09:00:00 30/07/1981,6.488,,,83209.277
09:00:00 31/07/1981,6.319,,,72657.051
09:00:00 01/08/1981,6.183,,,65659.581
09:00:00 02/08/1981,6.114,,,62640.561
09:00:00 03/08/1981,6.047,,,60388.1
09:00:00 04/08/1981,5.892,,,55713.494
09:00:00 05/08/1981,5.705,,,50295.488
09:00:00 06/08/1981,5.675,,,49514.701
09:00:00 07/08/1981,5.822,,,53609.287
09:00:00 08/08/1981,6.016,,,59531.502
09:00:00 09/08/1981,6.128,,,63190.837
09:00:00 10/08/1981,6.137,,,63575.785
09:00:00 11/08/1981,6.107,,,62370.282
09:00:00 12/08/1981,6.093,,,61783.744
09:00:00 13/08/1981,6.112,,,62527.187
09:00:00 14/08/1981,6.126,,,63123.768
09:00:00 15/08/1981,6.106,,,62320.16
09:00:00 16/08/1981,6.096,,,61921.88
09:00:00 17/08/1981,6.14,,,63746.66
09:00:00 18/08/1981,6.246,,,68789.898
09:00:00 19/08/1981,6.382,,,76149.293
09:00:00 20/08/1981,6.447,,,80389.381
09:00:00 21/08/1981,6.457,,,81053.74
09:00:00 22/08/1981,6.506,,,84366.121
09:00:00 23/08/1981,6.616,,,91967.545
09:00:00 24/08/1981,6.712,,,99670.03
09:00:00 25/08/1981,6.798,,,108357.304
09:00:00 26/08/1981,6.852,,,114328.098
09:00:00 27/08/1981,6.84,,,112991.052
09:00:00 28/08/1981,6.786,,,106980.897
09:00:00 29/08/1981,6.743,,,102462.693
09:00:00 30/08/1981,6.724,,,100442.685
09:00:00 31/08/1981,6.708,,,98999.635
09:00:00 01/09/1981,6.651,,,94415.357
09:00:00 02/09/1981,6.582,,,89517.09
09:00:00 03/09/1981,6.529,,,85921.13
09:00:00 04/09/1981,6.465,,,81622.99
09:00:00 05/09/1981,6.386,,,76430.388
09:00:00 06/09/1981,6.3,,,71272.139
09:00:00 07/09/1981,6.221,,,67338.967
09:00:00 08/09/1981,6.133,,,63599.441
09:00:00 09/09/1981,6.021,,,59589.601
09:00:00 10/09/1981,5.878,,,55302.546
09:00:00 11/09/1981,5.717,,,50684.802
09:00:00 12/09/1981,5.555,,,46780.59
09:00:00 13/09/1981,5.382,,,43239.623
09:00:00 14/09/1981,5.234,,,40460.388
09:00:00 15/09/1981,5.144,,,38824.528
09:00:00 16/09/1981,5.075,,,37607.359
09:00:00 17/09/1981,4.988,,,36170.709
09:00:00 18/09/1981,4.868,,,34450.078